Weather History for LHBP - January, 2013

Change the Weather History Date:

Thursday, January 17, 2013

  Actual Average Record
Temperature  
Mean Temperature 34 °F -  
Max Temperature 35 °F 38 °F 50 °F (2014)
Min Temperature 32 °F 23 °F 10 °F (2000)
Degree Days  
Heating Degree Days 32    
Moisture  
Dew Point 33 °F    
Average Humidity 96    
Maximum Humidity 100    
Minimum Humidity 81    
Precipitation  
Precipitation 0.00 in - - ()
Sea Level Pressure  
Sea Level Pressure 29.60 in    
Wind  
Wind Speed 7 mph ()    
Max Wind Speed 12 mph    
Max Gust Speed -    
Visibility 3.5 miles    
Events Rain , Snow    
Averages and records for this station are not official NWS values.
T = Trace of Precipitation, MM = Missing Value Source: Averaged Metar Reports

Daily Weather History Graph

Daily Weather History Graph

Search for Another Location

Airport or City:

Trip Planner

Search our weather history database for the weather conditions in past years. The results will help you decide how hot, cold, wet, or windy it might be!

Date:

Astronomy

Jan. 17, 2013 Rise Set
Actual Time 7:24 AM CET 4:22 PM CET
Civil Twilight 6:50 AM CET 4:56 PM CET
Nautical Twilight 6:12 AM CET 5:34 PM CET
Astronomical Twilight 5:35 AM CET 6:11 PM CET
Moon 9:52 AM CET (1/17) 11:27 PM CET (1/17)
Length of Visible Light 10h 06m
Length of Day
8h 57m
Waxing Crescent, 35% of the Moon is Illuminated
Jan 17
Waxing Crescent
Jan 19
First Quarter
Jan 27
Full
Feb 3
Last Quarter
Feb 10
New

Hourly Weather History & Observations

Time (CET) Temp. Windchill Dew Point Humidity Pressure Visibility Wind Dir Wind Speed Gust Speed Precip Events Conditions
12:00 AM 35.6 °F 29.2 °F 35.6 °F 100% 29.53 in 1.9 mi NE 8.1 mph - N/A   Overcast
12:30 AM 33.8 °F 27.0 °F 33.8 °F 100% 29.53 in 2.2 mi NE 8.1 mph - N/A   Overcast
1:00 AM 35.6 °F 28.0 °F 33.8 °F 93% 29.53 in 2.5 mi NE 10.4 mph - N/A   Overcast
1:30 AM 35.6 °F 28.0 °F 35.6 °F 100% 29.53 in 3.7 mi NE 10.4 mph - N/A   Overcast
2:00 AM 35.6 °F 29.2 °F 35.6 °F 100% 29.53 in 5.0 mi ENE 8.1 mph - N/A   Scattered Clouds
2:30 AM 33.8 °F 27.0 °F 33.8 °F 100% 29.53 in 5.0 mi ENE 8.1 mph - N/A   Scattered Clouds
3:00 AM 33.8 °F 27.0 °F 33.8 °F 100% 29.53 in 5.0 mi NE 8.1 mph - N/A   Mostly Cloudy
3:30 AM 33.8 °F 25.3 °F 33.8 °F 100% 29.53 in 5.0 mi NE 11.5 mph - N/A   Mostly Cloudy
4:00 AM 33.8 °F 25.3 °F 33.8 °F 100% 29.53 in 5.0 mi NE 11.5 mph - N/A   Mostly Cloudy
4:30 AM 35.6 °F 30.7 °F 35.6 °F 100% 29.53 in 5.0 mi ENE 5.8 mph - N/A   Mostly Cloudy
5:00 AM 35.6 °F 31.7 °F 35.6 °F 100% 29.53 in 5.0 mi NE 4.6 mph - N/A   Mostly Cloudy
5:30 AM 35.6 °F 29.2 °F 33.8 °F 93% 29.53 in 6.2 mi East 8.1 mph - N/A   Scattered Clouds
6:00 AM 35.6 °F 28.6 °F 33.8 °F 93% 29.53 in 5.0 mi NE 9.2 mph - N/A Rain Light Rain
6:30 AM 35.6 °F 29.2 °F 33.8 °F 93% 29.53 in 4.3 mi NNE 8.1 mph - N/A Rain Light Rain
7:00 AM 35.6 °F 31.7 °F 33.8 °F 93% 29.56 in 5.0 mi ENE 4.6 mph - N/A   Mostly Cloudy
7:30 AM 35.6 °F 28.6 °F 33.8 °F 93% 29.56 in 5.0 mi NE 9.2 mph - N/A   Mostly Cloudy
8:00 AM 35.6 °F 29.2 °F 33.8 °F 93% 29.56 in 3.7 mi NNE 8.1 mph - N/A   Mostly Cloudy
8:30 AM 35.6 °F 29.2 °F 32.0 °F 87% 29.56 in 4.3 mi NNE 8.1 mph - N/A   Mostly Cloudy
9:00 AM 35.6 °F 30.7 °F 32.0 °F 87% 29.59 in 4.3 mi NE 5.8 mph - N/A   Mostly Cloudy
9:30 AM 35.6 °F 28.6 °F 32.0 °F 87% 29.59 in 4.3 mi NE 9.2 mph - N/A   Overcast
10:00 AM 35.6 °F 28.6 °F 30.2 °F 81% 29.59 in 5.0 mi ENE 9.2 mph - N/A   Overcast
10:30 AM 35.6 °F - 30.2 °F 81% 29.62 in 5.0 mi Variable 2.3 mph - N/A   Overcast
11:00 AM 35.6 °F - 30.2 °F 81% 29.62 in 3.1 mi Variable 1.2 mph - N/A Rain , Snow Light Rain
11:30 AM 35.6 °F - 32.0 °F 87% 29.62 in 3.7 mi Variable 2.3 mph - N/A Rain , Snow Light Rain
12:00 PM 35.6 °F 31.7 °F 32.0 °F 87% 29.62 in 3.1 mi North 4.6 mph - N/A Rain , Snow Light Rain
12:30 PM 35.6 °F 31.7 °F 32.0 °F 87% 29.62 in 3.1 mi North 4.6 mph - N/A Rain , Snow Light Rain
1:00 PM 33.8 °F - 32.0 °F 93% 29.62 in 2.5 mi Variable 1.2 mph - N/A Rain , Snow Light Rain
1:30 PM 33.8 °F 30.8 °F 32.0 °F 93% 29.62 in 1.1 mi Variable 3.5 mph - N/A Snow Snow
2:00 PM 33.8 °F - 33.8 °F 100% 29.62 in 1.2 mi Variable 2.3 mph - N/A Snow Light Snow
2:30 PM 32.0 °F 28.7 °F 32.0 °F 100% 29.62 in 1.9 mi Variable 3.5 mph - N/A   Overcast
3:00 PM 33.8 °F 30.8 °F 33.8 °F 100% 29.62 in 1.6 mi Variable 3.5 mph - N/A   Overcast
3:30 PM 33.8 °F 28.6 °F 33.8 °F 100% 29.62 in 1.9 mi NNW 5.8 mph - N/A   Overcast
4:00 PM 33.8 °F 27.7 °F 33.8 °F 100% 29.62 in 1.9 mi North 6.9 mph - N/A   Overcast
4:30 PM 33.8 °F 27.0 °F 33.8 °F 100% 29.62 in 1.9 mi North 8.1 mph - N/A   Overcast
5:00 PM 33.8 °F 27.7 °F 33.8 °F 100% 29.62 in 1.9 mi North 6.9 mph - N/A   Overcast
5:30 PM 33.8 °F 28.6 °F 33.8 °F 100% 29.65 in 2.5 mi NNW 5.8 mph - N/A   Overcast
6:00 PM 33.8 °F 27.7 °F 33.8 °F 100% 29.65 in 2.5 mi North 6.9 mph - N/A   Overcast
6:30 PM 33.8 °F 28.6 °F 33.8 °F 100% 29.65 in 2.5 mi North 5.8 mph - N/A   Overcast
7:00 PM 35.6 °F 29.9 °F 33.8 °F 93% 29.65 in 2.5 mi NNE 6.9 mph - N/A   Overcast
7:30 PM 35.6 °F 29.9 °F 33.8 °F 93% 29.68 in 2.5 mi NNE 6.9 mph - N/A   Overcast
8:00 PM 33.8 °F 27.7 °F 33.8 °F 100% 29.68 in 3.7 mi North 6.9 mph - N/A   Mostly Cloudy
8:30 PM 33.8 °F 28.6 °F 33.8 °F 100% 29.68 in 3.7 mi North 5.8 mph - N/A   Overcast
9:00 PM 33.8 °F 28.6 °F 33.8 °F 100% 29.68 in 3.7 mi North 5.8 mph - N/A   Overcast
9:30 PM 33.8 °F 27.7 °F 33.8 °F 100% 29.68 in 3.7 mi North 6.9 mph - N/A   Overcast
10:00 PM 33.8 °F 27.7 °F 33.8 °F 100% 29.68 in 3.7 mi North 6.9 mph - N/A   Overcast
10:30 PM 33.8 °F 27.7 °F 33.8 °F 100% 29.65 in 3.7 mi North 6.9 mph - N/A   Overcast
11:00 PM 33.8 °F 29.6 °F 33.8 °F 100% 29.65 in 3.7 mi NE 4.6 mph - N/A   Overcast
11:30 PM 33.8 °F 30.8 °F 33.8 °F 100% 29.65 in 3.7 mi Variable 3.5 mph - N/A   Overcast